sat.trackr.live / text

‹ back to catalog

STAR ONE C2

NORAD 32768 · 2008-018B

PAYLOAD ACTIVE UNKNOWN

§ Identity

Operator
Country
BRAZ
Launch date
2008-04-18
Launch site
FRGUI
Launch vehicle
Mass (kg)
RCS (m²)
10.76

Purposes: comms

External: N2YO · Heavens-Above · Gunter

§ Orbital elements

Epoch: 2026-05-25T04:31:38.768160Z

Period
1,436.13 min
Inclination
1.1847°
Eccentricity
0.0002751
Mean motion
1.00269350 rev/d
Perigee alt
35,775.7 km
Apogee alt
35,798.9 km
Semi-major
42,165.4 km
B*
0.0000e+0
RAAN
82.6504°
Arg perigee
342.0138°
Mean anomaly
181.0194°
Rev number
6,642

§ Raw data

STAR ONE C21 32768U 08018B   26145.18864315 -.00000278  00000+0  00000+0 0  99932 32768   1.1847  82.6504 0002751 342.0138 181.0194  1.00269350 66428

JSON: /api/v1/satellites/32768 · /tle

For live sub-satellite position, see the globe view (requires WebGL).

§ Visibility from observer

Set your observer location to see the next 7 days of passes ≥ 10°. The values pass through the URL so the page stays shareable.

No JS? Fill the form by hand. The geolocation button needs JavaScript.